Location: Brusselsch Zeekanaal
(50.8667°N, 4.3667°E)
Time: 08:41:30
(UTC+00:00)

ARIANE 6 FM1 Upper Stage - Visible Passes

Search period start: 20 January 2026 00:00
Search period end: 30 January 2026 00:00
Orbit: 522 x 610 km, 62.0° (Epoch: 19 January)

Date Brightness Start Highest point End Pass type
(mag) Time Alt. Az. Time Alt. Az. Time Alt. Az.
20 Jan 5.4 19:12:44 10° SSW 19:12:50 11° SSW 19:12:50 11° SSW visible
21 Jan 4.9 19:12:42 10° SSW 19:13:48 18° SSW 19:13:48 18° SSW visible
22 Jan 4.5 17:36:30 10° SE 17:38:25 13° ESE 17:38:37 13° ESE visible
22 Jan 4.4 19:12:46 10° SW 19:14:41 27° SW 19:14:41 27° SW visible
23 Jan 4.2 17:35:34 10° SSE 17:38:24 18° ESE 17:39:24 17° E visible
23 Jan 3.9 19:12:57 10° SW 19:15:27 36° WSW 19:15:27 36° WSW visible
24 Jan 3.8 17:35:02 10° S 17:38:24 25° ESE 17:40:06 19° E visible
24 Jan 3.8 19:13:13 10° WSW 19:16:09 41° W 19:16:09 41° W visible
25 Jan 3.3 17:34:43 10° SSW 17:38:26 35° SE 17:40:41 19° ENE visible
25 Jan 3.8 19:13:33 10° WSW 19:16:44 39° WNW 19:16:44 39° WNW visible
26 Jan 2.9 17:34:34 10° SSW 17:38:30 49° SE 17:41:12 18° ENE visible
26 Jan 4.0 19:13:56 10° W 19:17:15 33° NW 19:17:15 33° NW visible
27 Jan 2.6 17:34:32 10° SW 17:38:35 68° SE 17:41:39 16° NE visible
27 Jan 4.2 19:14:23 10° W 19:17:41 28° NNW 19:17:41 28° NNW visible
28 Jan 2.5 17:34:37 10° SW 17:38:42 88° NW 17:42:03 14° NE visible
28 Jan 4.4 19:14:52 10° WNW 19:18:04 24° NNW 19:18:04 24° NNW visible
29 Jan 2.8 17:34:47 10° WSW 17:38:50 66° NW 17:42:22 13° NE visible
29 Jan 4.6 19:15:22 10° WNW 19:18:23 21° NNW 19:18:23 21° NNW visible
